Weather History for Llano, TX

Change the Weather History Date:

Tuesday, January 22, 2013

  Actual Average (KBMQ) Record (KBMQ)
Temperature  
Mean Temperature 54 °F -  
Max Temperature 73 °F 58 °F 80 °F (2009)
Min Temperature 35 °F 37 °F 26 °F (2011)
Degree Days  
Heating Degree Days 11    
Growing Degree Days 4 (Base 50)    
Moisture  
Dew Point 41 °F    
Average Humidity 66    
Maximum Humidity 93    
Minimum Humidity 36    
Precipitation  
Precipitation 0.00 in - - ()
Sea Level Pressure  
Sea Level Pressure 30.27 in    
Wind  
Wind Speed 2 mph (South)    
Max Wind Speed 13 mph    
Max Gust Speed 20 mph    
Visibility 10 miles    
Events      
Averages and records for this station are not official NWS values.
T = Trace of Precipitation, MM = Missing Value Source: NWS Daily Summary

Daily Weather History Graph

Daily Weather History Graph

Search for Another Location

Airport:

Trip Planner

Search our weather history database for the weather conditions in past years. The results will help you decide how hot, cold, wet, or windy it might be!

Date:

Astronomy

Jan. 22, 2013 Rise Set
Actual Time 7:30 AM CST 6:02 PM CST
Civil Twilight 7:05 AM CST 6:27 PM CST
Nautical Twilight 6:35 AM CST 6:57 PM CST
Astronomical Twilight 6:07 AM CST 7:25 PM CST
Moon 2:28 PM CST (1/22) 3:51 AM CST (1/22)
Length of Visible Light 11h 22m
Length of Day
10h 31m
Waxing Gibbous, 83% of the Moon is Illuminated
Jan 22
Waxing Gibbous
Jan 26
Full
Feb 3
Last Quarter
Feb 10
New
Feb 17
First Quarter

Hourly Weather History & Observations

Time (CST) Temp. Windchill Dew Point Humidity Pressure Visibility Wind Dir Wind Speed Gust Speed Precip Events Conditions
12:15 AM 42.8 °F - 35.6 °F 76% 30.27 in 10.0 mi Calm Calm - N/A   Clear
12:35 AM 42.8 °F - 35.6 °F 76% 30.26 in 10.0 mi Calm Calm - N/A   Clear
12:55 AM 41.0 °F - 35.6 °F 81% 30.26 in 10.0 mi Calm Calm - N/A   Clear
1:15 AM 39.2 °F - 35.6 °F 87% 30.26 in 10.0 mi Calm Calm - N/A   Clear
1:35 AM 39.2 °F - 35.6 °F 87% 30.27 in 10.0 mi Calm Calm - N/A   Clear
1:55 AM 42.8 °F - 35.6 °F 76% 30.27 in 10.0 mi Calm Calm - N/A   Clear
2:15 AM 41.0 °F - 35.6 °F 81% 30.28 in 10.0 mi Calm Calm - N/A   Clear
2:35 AM 41.0 °F - 35.6 °F 81% 30.27 in 10.0 mi Calm Calm - N/A   Clear
2:55 AM 39.2 °F - 33.8 °F 81% 30.28 in 10.0 mi Calm Calm - N/A   Clear
3:15 AM 37.4 °F - 33.8 °F 87% 30.28 in 10.0 mi Calm Calm - N/A   Clear
3:35 AM 37.4 °F - 33.8 °F 87% 30.29 in 10.0 mi Calm Calm - N/A   Clear
3:55 AM 39.2 °F - 35.6 °F 87% 30.29 in 10.0 mi Calm Calm - N/A   Mostly Cloudy
4:15 AM 41.0 °F - 35.6 °F 81% 30.30 in 10.0 mi Calm Calm - N/A   Overcast
4:35 AM 42.8 °F - 37.4 °F 81% 30.30 in 10.0 mi Calm Calm - N/A   Overcast
4:55 AM 42.8 °F - 37.4 °F 81% 30.30 in 10.0 mi Calm Calm - N/A   Overcast
5:15 AM 42.8 °F - 37.4 °F 81% 30.30 in 10.0 mi Calm Calm - N/A   Overcast
5:35 AM 41.0 °F - 37.4 °F 87% 30.30 in 10.0 mi Calm Calm - N/A   Mostly Cloudy
5:55 AM 39.2 °F - 35.6 °F 87% 30.29 in 10.0 mi Calm Calm - N/A   Partly Cloudy
6:15 AM 39.2 °F - 35.6 °F 87% 30.28 in 10.0 mi Calm Calm - N/A   Clear
6:35 AM 37.4 °F 34.9 °F 33.8 °F 87% 30.30 in 10.0 mi North 3.5 mph - N/A   Clear
6:55 AM 35.6 °F 31.7 °F 33.8 °F 93% 30.30 in 10.0 mi North 4.6 mph - N/A   Clear
7:15 AM 37.4 °F - 33.8 °F 87% 30.31 in 10.0 mi Calm Calm - N/A   Clear
7:35 AM 37.4 °F - 33.8 °F 87% 30.32 in 10.0 mi Calm Calm - N/A   Clear
7:55 AM 35.6 °F - 33.8 °F 93% 30.31 in 10.0 mi Calm Calm - N/A   Clear
8:15 AM 39.2 °F - 35.6 °F 87% 30.31 in 10.0 mi Calm Calm - N/A   Clear
8:35 AM 42.8 °F - 37.4 °F 81% 30.31 in 10.0 mi Calm Calm - N/A   Clear
8:55 AM 44.6 °F - 37.4 °F 76% 30.31 in 10.0 mi Calm Calm - N/A   Clear
9:15 AM 48.2 °F - 35.6 °F 62% 30.32 in 10.0 mi Calm Calm - N/A   Clear
9:35 AM 51.8 °F - 37.4 °F 58% 30.33 in 10.0 mi SE 4.6 mph - N/A   Clear
9:55 AM 53.6 °F - 37.4 °F 54% 30.33 in 10.0 mi SE 4.6 mph - N/A   Clear
10:15 AM 55.4 °F - 37.4 °F 51% 30.34 in 10.0 mi ESE 4.6 mph - N/A   Clear
10:35 AM 55.4 °F - 37.4 °F 51% 30.33 in 10.0 mi SE 5.8 mph - N/A   Clear
10:55 AM 57.2 °F - 39.2 °F 51% 30.33 in 10.0 mi Calm Calm - N/A   Clear
11:15 AM 59.0 °F - 39.2 °F 48% 30.33 in 10.0 mi East 3.5 mph - N/A   Clear
11:35 AM 60.8 °F - 41.0 °F 48% 30.32 in 10.0 mi ESE 5.8 mph - N/A   Clear
11:55 AM 62.6 °F - 42.8 °F 48% 30.30 in 10.0 mi East 3.5 mph - N/A   Clear
12:15 PM 64.4 °F - 42.8 °F 45% 30.29 in 10.0 mi NE 5.8 mph - N/A   Clear
12:35 PM 66.2 °F - 44.6 °F 46% 30.27 in 10.0 mi ENE 5.8 mph - N/A   Clear
12:55 PM 68.0 °F - 44.6 °F 43% 30.25 in 10.0 mi South 6.9 mph - N/A   Clear
1:15 PM 69.8 °F - 46.4 °F 43% 30.24 in 10.0 mi SW 11.5 mph - N/A   Scattered Clouds
1:35 PM 69.8 °F - 48.2 °F 46% 30.24 in 10.0 mi SSW 11.5 mph 19.6 mph N/A   Overcast
1:55 PM 71.6 °F - 48.2 °F 43% 30.22 in 5.0 mi South 10.4 mph - N/A   Haze
2:15 PM 73.4 °F - 48.2 °F 41% 30.22 in 10.0 mi South 12.7 mph - N/A   Scattered Clouds
2:35 PM 71.6 °F - 48.2 °F 43% 30.22 in 10.0 mi SSW 12.7 mph - N/A   Scattered Clouds
2:55 PM 71.6 °F - 48.2 °F 43% 30.21 in 10.0 mi South 8.1 mph - N/A   Mostly Cloudy
3:15 PM 73.4 °F - 46.4 °F 38% 30.21 in 10.0 mi South 12.7 mph 16.1 mph N/A   Mostly Cloudy
3:35 PM 71.6 °F - 46.4 °F 41% 30.21 in 10.0 mi SSW 11.5 mph - N/A   Mostly Cloudy
3:55 PM 73.4 °F - 46.4 °F 38% 30.21 in 10.0 mi SW 12.7 mph - N/A   Mostly Cloudy
4:15 PM 73.4 °F - 44.6 °F 36% 30.21 in 10.0 mi WSW 12.7 mph 17.3 mph N/A   Partly Cloudy
4:35 PM 71.6 °F - 44.6 °F 38% 30.22 in 10.0 mi SSW 10.4 mph - N/A   Clear
4:55 PM 71.6 °F - 44.6 °F 38% 30.22 in 10.0 mi SW 11.5 mph - N/A   Clear
5:15 PM 69.8 °F - 46.4 °F 43% 30.21 in 10.0 mi SSW 11.5 mph - N/A   Clear
5:35 PM 69.8 °F - 46.4 °F 43% 30.21 in 10.0 mi SSW 9.2 mph - N/A   Clear
5:55 PM 66.2 °F - 46.4 °F 49% 30.21 in 10.0 mi SSW 6.9 mph - N/A   Clear
6:15 PM 64.4 °F - 46.4 °F 52% 30.21 in 10.0 mi South 6.9 mph - N/A   Clear
6:35 PM 64.4 °F - 46.4 °F 52% 30.22 in 10.0 mi South 5.8 mph - N/A   Clear
6:55 PM 62.6 °F - 46.4 °F 55% 30.22 in 10.0 mi South 5.8 mph - N/A   Clear
7:15 PM 60.8 °F - 46.4 °F 59% 30.22 in 10.0 mi South 4.6 mph - N/A   Clear
7:35 PM 59.0 °F - 46.4 °F 63% 30.23 in 10.0 mi South 3.5 mph - N/A   Clear
7:55 PM 57.2 °F - 46.4 °F 67% 30.23 in 10.0 mi South 4.6 mph - N/A   Clear
8:15 PM 57.2 °F - 46.4 °F 67% 30.23 in 10.0 mi Calm Calm - N/A   Clear
8:35 PM 55.4 °F - 44.6 °F 67% 30.24 in 10.0 mi Calm Calm - N/A   Clear
8:55 PM 55.4 °F - 44.6 °F 67% 30.24 in 10.0 mi Calm Calm - N/A   Clear
9:15 PM 55.4 °F - 44.6 °F 67% 30.24 in 10.0 mi Calm Calm - N/A   Clear
9:35 PM 51.8 °F - 44.6 °F 76% 30.25 in 10.0 mi Calm Calm - N/A   Clear
9:55 PM 51.8 °F - 44.6 °F 76% 30.25 in 10.0 mi Calm Calm - N/A   Clear
10:15 PM 48.2 °F - 42.8 °F 82% 30.26 in 10.0 mi Calm Calm - N/A   Clear
10:35 PM 48.2 °F - 42.8 °F 82% 30.26 in 10.0 mi Calm Calm - N/A   Clear
10:55 PM 51.8 °F - 44.6 °F 76% 30.27 in 10.0 mi Calm Calm - N/A   Clear
11:15 PM 48.2 °F - 44.6 °F 87% 30.27 in 10.0 mi Calm Calm - N/A   Clear
11:55 PM 48.2 °F - 42.8 °F 82% 30.28 in 10.0 mi Calm Calm - N/A   Clear